[[{"header":{"parameterUnit":"m.s-1","parameterCategory":1,"la1":30.2991,"la2":30.254,"lo1":-89.0895,"lo2":-89.0444,"dy":0.0017,"dx":0.0017,"nx":28,"ny":28,"refTime":"2024-07-07T21:00:00:Z","depth":0,"parameterNumber":2,"parameterNumberName":"U-component_of_WINDS"},"data":[0,0,0,0,0,0,0,0,0,0,0,0,0,0,0,0,0,0,0,0,0,0,0,0,0,0,0,0,0,0,0,0,0,0,0,0,0,0,0,0,0,0,0,0,0,0,0,0,0,0,0,0,0,0,0,0,0,0,3.4015,3.4016,0,3.4094,3.4095,3.4096,3.4081,3.4079,3.4078,3.4076,3.4152,3.4155,3.4159,0,0,0,0,0,0,0,0,0,0,0,0,0,3.3845,3.3848,3.4015,3.4016,3.4017,3.4094,3.4095,3.4096,3.4081,3.4079,3.4077,3.4076,3.4151,3.4155,3.4159,0,0,0,0,0,0,0,0,0,0,0,0,0,3.3921,3.3849,3.4015,3.4019,3.402,3.4094,3.4095,3.4096,3.4081,3.4079,3.4077,3.4075,3.415,3.4155,3.416,3.4233,0,0,3.4175,3.4177,0,0,0,0,0,0,0,0,3.3917,3.3927,3.4017,3.4019,3.402,3.4075,3.4063,3.4142,3.4082,3.4058,3.4076,3.4074,3.4128,3.4135,3.4154,3.4236,3.424,3.4175,3.4178,3.4181,3.4182,0,0,0,0,0,0,0,3.3911,3.3924,3.4046,3.4019,3.402,3.4015,3.4023,3.4078,3.4104,3.406,3.4059,3.4069,3.4128,3.4149,3.4156,3.4241,3.4175,3.418,3.4183,3.4185,3.4384,3.4386,0,0,0,0,0,0,3.3906,3.3919,3.4044,3.4048,3.3962,3.4019,3.4029,3.406,3.4103,3.4108,3.407,3.4068,3.4142,3.415,3.4158,3.4244,3.418,3.4185,3.4188,3.4381,3.4384,3.4387,0,0,0,0,0,0,3.3902,3.3917,3.404,3.3984,3.3999,3.4025,3.4059,3.4062,3.4083,3.4111,3.4115,3.4087,3.414,3.4151,3.4214,3.4247,3.4187,3.4192,3.4379,3.4382,3.4385,3.4418,0,0,0,0,0,0,3.3897,3.3916,3.3945,3.3985,3.4002,3.4097,3.4062,3.4065,3.4092,3.409,3.4128,3.4132,3.414,3.4207,3.4219,3.4252,3.4196,3.4376,3.438,3.4384,3.4414,3.4422,3.4429,0,0,0,0,0,3.3891,3.3951,3.3947,3.3962,3.404,3.4099,3.4108,3.4117,3.4095,3.4124,3.4141,3.4131,3.4242,3.4213,3.4227,3.4262,3.4374,3.4379,3.4384,3.4411,3.4421,3.4429,0,0,0,0,0,0,3.3913,3.3956,3.3952,3.4027,3.4059,3.4096,3.4132,3.4128,3.4166,3.4161,3.4169,3.4178,3.4241,3.4258,3.4226,3.4334,3.4304,3.4312,3.432,3.433,3.4337,3.433,3.42,0,0,0,0,0,3.3927,3.3973,3.4008,3.407,3.4087,3.4107,3.4133,3.4137,3.417,3.4183,3.4205,3.4237,3.4278,3.4305,3.4345,3.4418,3.4424,3.4448,3.4456,3.4462,3.4468,3.4504,3.4515,3.4404,3.4403,3.4403,0,0,3.3955,3.3985,3.4013,3.4075,3.4101,3.4145,3.4118,3.4168,3.42,3.419,3.425,3.4268,3.4303,3.437,3.4401,3.4386,3.45,3.4469,3.4473,3.4476,3.4511,3.4521,3.453,3.4407,3.4406,3.4406,0,0,3.403,3.4058,3.4111,3.4138,3.4178,3.4191,3.4203,3.4241,3.4252,3.4314,3.4306,3.4344,3.4417,3.4441,3.4463,3.4545,3.4536,3.4558,3.4596,3.4632,3.464,3.4648,3.4674,3.4684,3.4565,3.4565,3.4565,0,3.4059,3.4129,3.4139,3.4189,3.4215,3.421,3.4262,3.4287,3.4337,3.4354,3.4338,3.4427,3.4451,3.4522,3.4542,3.4561,3.4573,3.4553,3.4639,3.4646,3.4654,3.4679,3.4689,3.4567,3.4567,3.4567,3.4566,0,3.4161,3.421,3.4248,3.4297,3.4328,3.4379,3.4395,3.4425,3.4426,3.444,3.45,3.4528,3.4573,3.4591,3.4592,3.4661,3.4651,3.4637,3.4607,3.4666,3.469,3.47,3.457,3.4569,3.4569,3.4568,0,0,3.425,3.4305,3.4319,3.434,3.4383,3.4419,3.4469,3.4513,3.4537,3.4572,3.4612,3.4673,3.4659,3.4684,3.4688,3.472,3.478,3.4702,3.4702,3.4712,3.4854,3.4862,3.4874,3.4775,3.4777,3.4778,3.485,0,3.4326,3.4415,3.4426,3.4504,3.4547,3.4542,3.4585,3.4614,3.4629,3.4665,3.4681,3.4723,3.4704,3.4718,3.475,3.4766,3.4808,3.4761,3.4809,3.4811,3.4797,3.4886,3.4896,3.4962,3.486,3.4861,3.4863,0,3.4426,3.4464,3.4547,3.4582,3.4601,3.4639,3.468,3.4716,3.4749,3.4757,3.4784,3.4784,3.4833,3.4803,3.4868,3.4836,3.4857,3.4868,3.487,3.4873,3.4838,3.4888,3.4984,3.4993,3.4878,3.4877,3.4876,0,3.4479,3.4551,3.4609,3.4628,3.4671,3.4698,3.4717,3.4748,3.4773,3.4809,3.4825,3.4865,3.4886,3.4916,3.4926,3.4903,3.499,3.4961,3.4995,3.4995,3.5011,3.5009,3.5108,3.5029,3.5029,3.5029,3.5029,0,3.456,3.461,3.4633,3.4668,3.4724,3.4735,3.4788,3.4806,3.4833,3.487,3.4869,3.4903,3.4915,3.4951,3.4959,3.501,3.502,3.5026,3.5027,3.5025,3.5023,3.5036,3.503,3.5032,3.5031,3.5031,3.503,0,3.4627,3.4645,3.4707,3.4744,3.4754,3.4792,3.4822,3.4855,3.4869,3.4916,3.4927,3.4949,3.4991,3.5004,3.5055,3.506,3.5119,3.5117,3.5108,3.5107,3.5139,3.5135,3.5247,3.5261,3.5176,3.5176,3.5177,0,3.4677,3.4715,3.4755,3.4781,3.4801,3.4842,3.4868,3.488,3.4907,3.4946,3.4974,3.5016,3.505,3.5116,3.5135,3.5173,3.517,3.5207,3.5176,3.5171,3.5167,3.5163,3.5166,3.5212,3.5213,3.5214,3.5214,0,3.4761,3.4768,3.4807,3.4848,3.4879,3.4912,3.4943,3.4964,3.498,3.501,3.5053,3.508,3.5131,3.5172,3.521,3.5228,3.5222,3.5224,3.5233,3.523,3.5222,3.5223,3.512,3.5221,3.522,3.522,3.5219,3.5219,3.4819,3.4852,3.4885,3.4927,3.4952,3.4982,3.5014,3.5032,3.5069,3.5112,3.5117,3.5163,3.5193,3.5244,3.5264,3.5298,3.5288,3.5302,3.5305,3.5307,3.5308,3.5219,3.5306,3.5306,3.5306,3.5305,3.5305,0,3.4901,3.4922,3.4961,3.5005,3.5038,3.5033,3.5067,3.5094,3.5135,3.5164,3.5197,3.5246,3.5285,3.5307,3.5346,3.5369,3.5367,3.5378,3.5375,3.5378,3.5317,3.5304,3.5379,3.5379,3.5379,3.5379,3.5379,3.5379,3.4947,3.5002,3.5012,3.5078,3.5098,3.5144,3.5164,3.519,3.5213,3.5268,3.53,3.5315,3.5341,3.5381,3.5416,3.5421,3.5434,3.5445,3.5449,3.5391,3.5383,3.5376,3.5363,3.5449,3.5449,3.5507,3.5507,3.5508]},{"header":{"parameterUnit":"m.s-1","parameterCategory":1,"la1":30.2991,"la2":30.254,"lo1":-89.0895,"lo2":-89.0444,"dy":0.0017,"dx":0.0017,"nx":28,"ny":28,"refTime":"2024-07-07T21:00:00:Z","depth":0,"parameterNumber":3,"parameterNumberName":"V-component_of_WINDS"},"data":[0,0,0,0,0,0,0,0,0,0,0,0,0,0,0,0,0,0,0,0,0,0,0,0,0,0,0,0,0,0,0,0,0,0,0,0,0,0,0,0,0,0,0,0,0,0,0,0,0,0,0,0,0,0,0,0,0,0,6.1753,6.1755,0,6.1916,6.1918,6.192,6.1888,6.1885,6.1882,6.188,6.2039,6.2046,6.2053,0,0,0,0,0,0,0,0,0,0,0,0,0,6.1406,6.1413,6.1753,6.1755,6.1757,6.1916,6.1918,6.192,6.1889,6.1885,6.1882,6.1878,6.2037,6.2045,6.2054,0,0,0,0,0,0,0,0,0,0,0,0,0,6.1562,6.1415,6.1753,6.1761,6.1763,6.1916,6.1918,6.1921,6.189,6.1885,6.1881,6.1877,6.2034,6.2045,6.2055,6.2208,0,0,6.2087,6.2092,0,0,0,0,0,0,0,0,6.1553,6.1574,6.1757,6.176,6.1763,6.1878,6.1855,6.2017,6.1891,6.1841,6.188,6.1874,6.1989,6.2003,6.2043,6.2215,6.2222,6.2088,6.2094,6.2099,6.2102,0,0,0,0,0,0,0,6.1542,6.1567,6.1817,6.176,6.1764,6.1753,6.1771,6.1885,6.1937,6.1845,6.1843,6.1863,6.1989,6.2033,6.2046,6.2224,6.2088,6.2097,6.2103,6.2107,6.2528,6.2533,0,0,0,0,0,0,6.153,6.1558,6.1812,6.1822,6.1645,6.1763,6.1783,6.1845,6.1936,6.1946,6.1867,6.1861,6.2017,6.2034,6.2052,6.2236,6.2099,6.2109,6.2115,6.2523,6.2529,6.2535,0,0,0,0,0,0,6.1523,6.1553,6.1806,6.169,6.1722,6.1774,6.1845,6.1851,6.1894,6.1953,6.1961,6.1902,6.2014,6.2037,6.2169,6.2241,6.2113,6.2123,6.2518,6.2525,6.2532,6.2605,0,0,0,0,0,0,6.1513,6.155,6.1611,6.1692,6.1728,6.1923,6.1849,6.1857,6.1913,6.1907,6.1988,6.1997,6.2012,6.2154,6.218,6.2253,6.2131,6.2511,6.2521,6.253,6.2597,6.2614,6.2629,0,0,0,0,0,6.15,6.1624,6.1614,6.1645,6.1805,6.1927,6.1948,6.1965,6.1919,6.1979,6.2016,6.1994,6.2229,6.2168,6.2196,6.2274,6.2507,6.2518,6.2529,6.2589,6.2611,6.2629,0,0,0,0,0,0,6.1548,6.1635,6.1625,6.1779,6.1846,6.1922,6.1998,6.1987,6.2068,6.2058,6.2074,6.2092,6.2227,6.2263,6.2194,6.2425,6.2361,6.2378,6.2397,6.2418,6.2434,6.2422,6.214,0,0,0,0,0,6.1576,6.1671,6.1741,6.1869,6.1904,6.1946,6.1999,6.2007,6.2077,6.2104,6.2151,6.2218,6.2306,6.2364,6.2448,6.2602,6.2618,6.2669,6.2685,6.2698,6.2713,6.2795,6.2818,6.2571,6.2571,6.257,0,0,6.1636,6.1695,6.1753,6.188,6.1934,6.2029,6.197,6.2073,6.2143,6.2119,6.2248,6.2284,6.2359,6.2502,6.2568,6.2537,6.2785,6.2712,6.2722,6.273,6.2809,6.2832,6.2853,6.2578,6.2577,6.2576,0,0,6.1793,6.1848,6.1961,6.2016,6.2098,6.2125,6.2152,6.223,6.2254,6.2383,6.2367,6.2449,6.2601,6.2655,6.2702,6.2879,6.2861,6.2906,6.2991,6.3071,6.309,6.3108,6.317,6.3192,6.292,6.292,6.2921,0,6.1856,6.2002,6.202,6.2126,6.2181,6.2166,6.2279,6.233,6.2435,6.2472,6.2436,6.2627,6.2676,6.2831,6.2875,6.2914,6.2943,6.2897,6.3086,6.3104,6.312,6.318,6.3203,6.2925,6.2925,6.2924,6.2924,0,6.2074,6.2175,6.2256,6.236,6.2424,6.2533,6.2565,6.2628,6.2629,6.2659,6.2789,6.2848,6.2944,6.2981,6.2983,6.3136,6.3115,6.3083,6.3018,6.3149,6.3204,6.3227,6.2932,6.293,6.2929,6.2928,0,0,6.2266,6.2379,6.2408,6.2455,6.2544,6.2621,6.2727,6.2824,6.2876,6.2948,6.3037,6.3166,6.3137,6.3191,6.3198,6.3268,6.3403,6.3228,6.3229,6.3258,6.3574,6.3598,6.3624,6.3392,6.3396,6.34,6.3568,0,6.2431,6.2623,6.2642,6.2812,6.2904,6.2891,6.2983,6.3046,6.3077,6.3157,6.3189,6.328,6.3235,6.3267,6.3337,6.3372,6.3467,6.336,6.3472,6.3476,6.3454,6.3653,6.3679,6.3834,6.359,6.3594,6.3596,0,6.265,6.2731,6.2911,6.2987,6.3026,6.3109,6.3198,6.3276,6.3346,6.3363,6.3423,6.3421,6.3528,6.3459,6.3606,6.3533,6.358,6.3604,6.361,6.3621,6.3544,6.3669,6.3885,6.3908,6.3631,6.3628,6.3626,0,6.2771,6.2925,6.3052,6.3092,6.3184,6.3243,6.3283,6.3349,6.3405,6.3482,6.3518,6.3605,6.3653,6.3719,6.374,6.3688,6.3885,6.3819,6.39,6.39,6.3942,6.3939,6.4168,6.3973,6.3973,6.3972,6.3972,0,6.2953,6.3064,6.3108,6.3186,6.3309,6.3328,6.3448,6.3485,6.3544,6.3627,6.3619,6.3697,6.372,6.3801,6.3817,6.3935,6.3957,6.3971,6.3974,6.3972,6.3971,6.4003,6.3993,6.3979,6.3977,6.3976,6.3975,0,6.311,6.3144,6.3282,6.3358,6.3379,6.3466,6.3529,6.3603,6.3632,6.3737,6.3763,6.3807,6.3902,6.3929,6.4042,6.4053,6.4192,6.4185,6.4169,6.4169,6.4249,6.4241,6.4506,6.4542,6.4324,6.4326,6.4327,0,6.3224,6.3309,6.3394,6.3451,6.3494,6.3585,6.3643,6.3664,6.3724,6.381,6.3873,6.3968,6.4044,6.4196,6.4236,6.4322,6.4317,6.4404,6.433,6.4325,6.4318,6.4312,6.432,6.4418,6.442,6.4422,6.4424,0,6.3422,6.3435,6.352,6.3611,6.3681,6.3753,6.3822,6.3868,6.3898,6.3965,6.4064,6.4123,6.424,6.4333,6.442,6.4458,6.4446,6.4447,6.447,6.4469,6.4456,6.4464,6.4207,6.4441,6.4439,6.4438,6.4437,6.4436,6.3561,6.3636,6.3708,6.3802,6.3856,6.3921,6.3994,6.4033,6.4116,6.4214,6.422,6.4327,6.4392,6.4509,6.4552,6.4633,6.4607,6.4641,6.465,6.4658,6.4664,6.4443,6.4649,6.4648,6.4648,6.4648,6.4647,0,6.3759,6.3804,6.3891,6.3989,6.4063,6.4047,6.4122,6.4184,6.4278,6.4342,6.4418,6.453,6.462,6.4667,6.4756,6.4812,6.4808,6.4835,6.483,6.4839,6.4683,6.4654,6.4836,6.4836,6.4836,6.4836,6.4836,6.4836,6.3871,6.3996,6.4017,6.4168,6.4212,6.4318,6.4362,6.4421,6.4472,6.4598,6.4674,6.4705,6.4762,6.4854,6.4935,6.4947,6.4979,6.5009,6.5017,6.487,6.485,6.4832,6.4805,6.5016,6.5016,6.5166,6.5168,6.5169]}]]